sat.trackr.live / text

‹ back to catalog

STARLINK-31334

NORAD 59157 · 2024-044F

PAYLOAD ACTIVE UNKNOWN

§ Identity

Operator
Country
US
Launch date
2024-03-04
Launch site
AFETR
Launch vehicle
Mass (kg)
RCS (m²)

Purposes: comms

External: N2YO · Heavens-Above · Gunter

§ Orbital elements

Epoch: 2026-09-20T22:18:22.692384Z

Period
94.27 min
Inclination
43.0020°
Eccentricity
0.0001315
Mean motion
15.27576796 rev/d
Perigee alt
482.2 km
Apogee alt
484.0 km
Semi-major
6,861.2 km
B*
1.3505e-5
RAAN
87.9705°
Arg perigee
268.3199°
Mean anomaly
91.7502°
Rev number
14,338

§ Raw data

STARLINK-313341 59157U 24044F   26263.92942931  .00000109  00000+0  13505-4 0  99962 59157  43.0020  87.9705 0001315 268.3199  91.7502 15.27576796143380

JSON: /api/v1/satellites/59157 · /tle

For live sub-satellite position, see the globe view (requires WebGL).

§ Visibility from observer

Set your observer location to see the next 7 days of passes ≥ 10°. The values pass through the URL so the page stays shareable.

No JS? Fill the form by hand. The geolocation button needs JavaScript.